Regional Weather Roundup
Issued by NWS

Home | Current Version | Previous Version | Graphics & Text | Print | Product List | Glossary Off
Versions: 1 2 3 4 5 6 7 8 9 10 11 12 13 14 15 16 17 18 19 20 21 22 23 24 25 26 27 28 29 30 31 32 33 34 35 36 37 38 39 40 41 42 43 44 45 46 47 48 49 50

000
ASUS43 KMPX 271810
RWRMN
WEATHER ROUNDUP FOR MINNESOTA
NATIONAL WEATHER SERVICE TWIN CITIES/CHANHASSEN MN
100 PM CDT THU JUL 27 2017


NOTE: "FAIR" INDICATES FEW OR NO CLOUDS BELOW 12,000 FEET WITH NO
SIGNIFICANT WEATHER AND/OR OBSTRUCTIONS TO VISIBILITY. N/A MEANS
CURRENT SKY AND/OR WEATHER CONDITIONS ARE NOT AVAILABLE.

MNZ060>063-068>070-271900-
   Twin Cities Metro

CITY           SKY/WX    TMP DP  RH WIND       PRES   REMARKS
TWIN CITIES    MOSUNNY   84  58  40 VRB3      30.07S
6HR MIN TEMP:  68; 6HR MAX TEMP:  84;

ST PAUL        MOSUNNY   82  59  45 E9        30.07F
CRYSTAL        PTSUNNY   83  57  41 NE8       30.07S
BLAINE         MOSUNNY   82  59  44 NE6       30.08S
LAKEVILLE      MOSUNNY   81  63  54 CALM      30.08S
EDEN PRAIRIE   MOSUNNY   84  59  42 MISG      30.07S
6HR MIN TEMP:  67; 6HR MAX TEMP:  84;

SOUTH ST PAUL  SUNNY     82  58  44 NE6       30.07S
LAKE ELMO      FAIR      81  61  50 N3        30.09S
$$
MNZ001>005-007-008-013>017-022>024-027-028-271900-
   Northwest Minnesota

CITY           SKY/WX    TMP DP  RH WIND       PRES   REMARKS
BEMIDJI        MOSUNNY   79  56  44 N6        30.13S
HALLOCK        SUNNY     81  63  54 NW7       30.11S
ROSEAU         SUNNY     81  64  57 CALM      30.11S
WARROAD        MOSUNNY   79  66  65 E7        30.11S
THIEF RVR FALL MOSUNNY   78  60  53 W7        30.14S
CROOKSTON      SUNNY     79  57  47 SW3       30.12F
FOSSTON        SUNNY     79  72  78 CALM      30.14F
DETROIT LAKES  MOSUNNY   77  61  57 NW3       30.15S
MOORHEAD       SUNNY     79  57  47 CALM      30.13S
PARK RAPIDS    MOSUNNY   81  57  43 N9        30.12F
MAHNOMEN       FAIR      79  59  50 N5        30.14S
$$
MNZ006-009>011-018-025>026-271900-
   North Central Minnesota

CITY           SKY/WX    TMP DP  RH WIND       PRES   REMARKS
BAUDETTE       SUNNY     76  60  57 NW3       30.11F
FLAG ISLAND    CLOUDY    81  61  50 S3        30.09F
INTL FALLS     PTSUNNY   80  55  42 NW6       30.10F
6HR MIN TEMP:  54; 6HR MAX TEMP:  82;

WASKISH        SUNNY     79  63  57 W7        30.11F
BIG FORK       SUNNY     81  55  41 CALM      30.12S
LONGVILLE      MOSUNNY   75  61  60 NW3       30.12F
GRAND RAPIDS   MOSUNNY   78  58  49 VRB3      30.13S
CRANE LAKE     SUNNY     77  55  47 CALM      30.11F
ORR            MOSUNNY   79  52  38 W3        30.09S
COOK             N/A     77  57  50 CALM      30.11F
WALKER         MOCLDY    78  59  52 E3        30.13S
$$
MNZ012-019>021-037-271900-
   Northeast Minnesota

CITY           SKY/WX    TMP DP  RH WIND       PRES   REMARKS
DULUTH         MOSUNNY   73  60  63 SE6       30.11S
6HR MIN TEMP:  62; 6HR MAX TEMP:  76;

ELY            MOSUNNY   77  54  44 CALM      30.10F
HIBBING        MOSUNNY   77  52  41 N5        30.11S
EVELETH        MOSUNNY   78  41  26 N3        30.12S
DULUTH HARBOR  MOSUNNY   72  63  73 NE9       30.10S
TWO HARBORS    MOSUNNY   75  63  64 SE8       30.09S
GRAND MARAIS     N/A     70  53  54 E5        30.11S
G MARAIS ARPRT MOSUNNY   70  50  49 S5        30.15S
$$
MNZ029>031-032-039>041-046>048-054>057-064-271900-
   West Central Minnesota

CITY           SKY/WX    TMP DP  RH WIND       PRES   REMARKS
FERGUS FALLS   SUNNY     79  57  47 CALM      30.11S
WHEATON        MOSUNNY   79  57  47 CALM      30.13F
MORRIS         MOSUNNY   81  59  47 SW3       30.11S
ALEXANDRIA     SUNNY     80  57  45 NE7       30.14F
ELBOW LAKE     FAIR      77  60  54 CALM      30.13S HAZE
WADENA         MOSUNNY   79  59  50 NW6       30.13S
GLENWOOD       MOSUNNY   81  57  44 NW6       30.14S
APPLETON       MOSUNNY   81  57  44 N5        30.11S
BENSON         SUNNY     82  55  39 CALM      30.13S
ORTONVILLE     SUNNY     81  63  54 MISG        N/A
MADISON        MOSUNNY   82  61  47 N6        30.12S
WILLMAR        FAIR      79  61  53 CALM      30.13S
$$
MNZ033>034-036-042>043-049>051-058-059-271900-
   Central Minnesota

CITY           SKY/WX    TMP DP  RH WIND       PRES   REMARKS
ST CLOUD       SUNNY     81  60  48 CALM      30.10F
6HR MIN TEMP:  63; 6HR MAX TEMP:  82;

SAUK CENTRE    FAIR      79  59  50 CALM      30.12F
PAYNESVILLE    MOSUNNY   81  58  45 NW7       30.12S
AITKIN         SUNNY     79  59  50 NE3       30.10F
PINE RIVER     MOSUNNY   79  61  53 CALM      30.15S
BRAINERD       MOSUNNY   78  58  49 NE6       30.11F
STAPLES        MOSUNNY   81  55  41 CALM      30.12F
LONG PRAIRIE   FAIR      77  59  53 W5        30.14S
LITTLE FALLS   MOSUNNY   77  55  47 CALM      30.12F
LITCHFIELD     MOSUNNY   81  63  54 N3        30.11F
BUFFALO        PTSUNNY   81  57  43 N5        30.11S
MAPLE LAKE     MOSUNNY   82  62  50 N6        30.11S
HUTCHINSON     MOSUNNY   80  63  56 N6        30.11S
$$
MNZ037-044-045-052-053-271900-
   East Central Minnesota

CITY           SKY/WX    TMP DP  RH WIND       PRES   REMARKS
PRINCETON      SUNNY     82  61  47 NW3       30.10S
MORA           MOSUNNY   79  55  44 N5        30.12S
CAMBRIDGE      SUNNY     81  61  50 NW9       30.08S
RUSH CITY      SUNNY     80  60  49 N3        30.10S
MOOSE LAKE     MOSUNNY   79  57  47 CALM      30.08F
HINCKLEY       CLOUDY    79  61  53 NW5       30.10S
CLOQUET        MOSUNNY   79  57  47 CALM      30.11S
MCGREGOR       PTSUNNY   77  59  53 CALM      30.11F
$$
MNZ071>073-080-081-089-090-097-098-271900-
   Southwest Minnesota

CITY           SKY/WX    TMP DP  RH WIND       PRES   REMARKS
MONTEVIDEO     MOSUNNY   84  63  48 NE6       30.12S
CANBY          SUNNY     81  60  50 CALM      30.14S
MARSHALL       MOSUNNY   77  61  57 CALM      30.12F
REDWOOD FALLS  MOSUNNY   82  59  45 N5        30.10S
OLIVIA         SUNNY     79  61  53 N3        30.11S
PIPESTONE      MOSUNNY   79  61  53 NE5       30.14S
WINDOM         SUNNY     79  61  53 N6        30.12S
WORTHINGTON    MOSUNNY   77  60  55 N9        30.13F
JACKSON        MOSUNNY   77  61  57 CALM      30.12S
TRACY          SUNNY     78  63  60 CALM      30.13F
SLAYTON        HVY RAIN  77  53  42 N6        30.14F
$$
MNZ065>067-074>077-082>085-091>093-271900-
   South Central Minnesota

CITY           SKY/WX    TMP DP  RH WIND       PRES   REMARKS
MANKATO        MOSUNNY   79  62  56 NW6       30.09S
NEW ULM        MOSUNNY   81  61  50 NW8       30.09S
ST JAMES       MOSUNNY   81  63  54 NW5       30.10S
FAIRMONT       MOSUNNY   80  65  59 N7        30.09F
GLENCOE        SUNNY     80  65  59 NW5       30.09S
FARIBAULT      MOSUNNY   81  64  57 N5        30.08S
OWATONNA       PTSUNNY   81  64  57 N6        30.08S
WASECA         MOSUNNY   77  63  61 N5        30.09S
ALBERT LEA     SUNNY     81  63  54 N6        30.07F
$$
MNZ078>079-086>088-094>096-271900-
   Southeast Minnesota

CITY           SKY/WX    TMP DP  RH WIND       PRES   REMARKS
ROCHESTER      PTSUNNY   79  63  57 N8        30.08S
6HR MIN TEMP:  64; 6HR MAX TEMP:  81;

RED WING       MOSUNNY   81  57  44 NE7       30.04F
STANTON        SUNNY     81  63  54 NE3       30.06F
DODGE CENTER   MOSUNNY   81  61  50 CALM      30.08S
WINONA         MOSUNNY   79  63  57 E3        30.04F
AUSTIN         PTSUNNY   79  59  50 N6        30.07S
PRESTON        MOSUNNY   78  62  58 NE6       30.07S
$$
ABBREVIATIONS USED IN REMARKS
   TC - TEMPERATURES IN CELSIUS
  WCI - WIND CHILL INDEX
   HX - HEAT INDEX
  VSB - VISIBILITY
$$




USA.gov is the U.S. government's official web portal to all federal, state and local government web resources and services.